User: anonymous   Login
Location: Peebles
(55.6412°N, 3.1714°W)
Time: 02:57:51
(UTC+00:00)
Language:

Cosmos 1908 Rocket - Orbit

View from above orbital plane
View from above orbital plane
View from above satellite
View from above satellite

Ground track
Ground track

The orbit data is extracted from the following two-line orbital elements,

1 18749U 88001B   21333.80950841  .00000121  00000-0  11907-4 0  9999
2 18749  82.5157 220.5960 0018600 355.2667 119.2934 14.83290956810489
Epoch (UTC): 29 November 2021 19:25:41
Eccentricity: 0.0018600
inclination: 82.5157°
perigee height: 606 km
apogee height: 632 km
right ascension of ascending node: 220.5960°
argument of perigee: 355.2667°
revolutions per day: 14.83290956
mean anomaly at epoch: 119.2934°
orbit number at epoch: 81048

The dashed part of the orbit path shows where the satellite is in the earth's shadow,  

DLR